Weather History for KBYY - December, 2013

Change the Weather History Date:

Thursday, December 12, 2013

  Actual Average (KLBX) Record (KLBX)
Temperature  
Mean Temperature 48 °F -  
Max Temperature 55 °F 62 °F 79 °F (2007)
Min Temperature 40 °F 44 °F 27 °F (2008)
Degree Days  
Heating Degree Days 17    
Moisture  
Dew Point 39 °F    
Average Humidity 73    
Maximum Humidity 93    
Minimum Humidity 48    
Precipitation  
Precipitation 0.00 in - - ()
Sea Level Pressure  
Sea Level Pressure 30.46 in    
Wind  
Wind Speed 6 mph (North)    
Max Wind Speed 10 mph    
Max Gust Speed -    
Visibility 10 miles    
Events      
Averages and records for this station are not official NWS values.
T = Trace of Precipitation, MM = Missing Value Source: NWS Daily Summary

Daily Weather History Graph

Daily Weather History Graph

Search for Another Location

Airport or City:

Trip Planner

Search our weather history database for the weather conditions in past years. The results will help you decide how hot, cold, wet, or windy it might be!

Date:

Astronomy

Dec. 12, 2013 Rise Set
Actual Time 7:07 AM CST 5:27 PM CST
Civil Twilight 6:41 AM CST 5:53 PM CST
Nautical Twilight 6:12 AM CST 6:22 PM CST
Astronomical Twilight 5:43 AM CST 6:51 PM CST
Moon 2:20 PM CST (12/12) 2:47 AM CST (12/12)
Length of Visible Light 11h 11m
Length of Day
10h 19m
Waxing Gibbous, 80% of the Moon is Illuminated
Dec 12
Waxing Gibbous
Dec 17
Full
Dec 25
Last Quarter
Jan 1
New
Jan 7
First Quarter

Hourly Weather History & Observations

Time (CST) Temp. Windchill Dew Point Humidity Pressure Visibility Wind Dir Wind Speed Gust Speed Precip Events Conditions
12:15 AM 50.7 °F - 42.1 °F 72% 30.49 in 10.0 mi North 6.9 mph - N/A   Overcast
12:35 AM 50.5 °F - 41.5 °F 71% 30.49 in 10.0 mi North 6.9 mph - N/A   Mostly Cloudy
12:55 AM 48.7 °F - 40.8 °F 74% 30.48 in 10.0 mi North 6.9 mph - N/A   Scattered Clouds
1:15 AM 47.3 °F - 40.3 °F 77% 30.48 in 10.0 mi North 5.8 mph - N/A   Clear
1:35 AM 46.0 °F 43.1 °F 40.1 °F 80% 30.48 in 10.0 mi North 5.8 mph - N/A   Clear
1:55 AM 45.9 °F 42.3 °F 40.1 °F 80% 30.49 in 10.0 mi North 6.9 mph - N/A   Clear
2:15 AM 45.5 °F 43.2 °F 39.9 °F 81% 30.49 in 10.0 mi North 4.6 mph - N/A   Clear
2:35 AM 45.1 °F 41.4 °F 39.7 °F 81% 30.48 in 10.0 mi North 6.9 mph - N/A   Clear
2:55 AM 45.0 °F 41.2 °F 39.6 °F 81% 30.49 in 10.0 mi North 6.9 mph - N/A   Clear
3:15 AM 44.8 °F 40.4 °F 39.4 °F 81% 30.49 in 10.0 mi North 8.1 mph - N/A   Clear
3:35 AM 44.4 °F 41.2 °F 39.2 °F 82% 30.49 in 10.0 mi NNE 5.8 mph - N/A   Clear
3:55 AM 43.9 °F 39.9 °F 38.8 °F 82% 30.50 in 10.0 mi North 6.9 mph - N/A   Clear
4:15 AM 43.7 °F 39.1 °F 38.5 °F 82% 30.50 in 10.0 mi North 8.1 mph - N/A   Clear
4:35 AM 43.2 °F 39.7 °F 38.1 °F 82% 30.49 in 10.0 mi North 5.8 mph - N/A   Clear
4:55 AM 42.4 °F 38.1 °F 38.1 °F 85% 30.49 in 10.0 mi North 6.9 mph - N/A   Clear
5:15 AM 42.3 °F 38.6 °F 38.3 °F 86% 30.49 in 10.0 mi North 5.8 mph - N/A   Clear
5:35 AM 41.9 °F 38.2 °F 38.3 °F 87% 30.49 in 10.0 mi North 5.8 mph - N/A   Clear
5:55 AM 41.4 °F 36.8 °F 37.9 °F 88% 30.50 in 10.0 mi North 6.9 mph - N/A   Clear
6:15 AM 41.7 °F 36.7 °F 38.1 °F 87% 30.50 in 10.0 mi North 8.1 mph - N/A   Clear
6:35 AM 41.7 °F 36.7 °F 38.1 °F 87% 30.51 in 10.0 mi North 8.1 mph - N/A   Clear
6:55 AM 41.4 °F 36.2 °F 37.8 °F 87% 30.51 in 10.0 mi North 8.1 mph - N/A   Clear
7:15 AM 41.0 °F 35.8 °F 37.8 °F 88% 30.52 in 10.0 mi North 8.1 mph - N/A   Clear
7:35 AM 41.0 °F 35.8 °F 37.8 °F 88% 30.53 in 10.0 mi North 8.1 mph - N/A   Clear
7:55 AM 41.2 °F 36.6 °F 37.8 °F 88% 30.53 in 10.0 mi North 6.9 mph - N/A   Clear
8:15 AM 41.5 °F 37.1 °F 37.9 °F 87% 30.53 in 10.0 mi North 6.9 mph - N/A   Clear
8:35 AM 42.1 °F 37.7 °F 38.1 °F 86% 30.54 in 10.0 mi North 6.9 mph - N/A   Clear
8:55 AM 43.0 °F 38.2 °F 38.3 °F 84% 30.53 in 10.0 mi NNE 8.1 mph - N/A   Clear
9:15 AM 43.7 °F 38.1 °F 37.9 °F 80% 30.54 in 10.0 mi NNE 10.4 mph - N/A   Clear
9:35 AM 44.4 °F 40.5 °F 37.9 °F 78% 30.53 in 10.0 mi NNE 6.9 mph - N/A   Clear
9:55 AM 45.0 °F 40.1 °F 38.1 °F 77% 30.54 in 10.0 mi North 9.2 mph - N/A   Clear
10:15 AM 45.9 °F 42.3 °F 38.5 °F 75% 30.53 in 10.0 mi NNE 6.9 mph - N/A   Clear
10:35 AM 46.6 °F - 38.5 °F 73% 30.54 in 10.0 mi NNE 6.9 mph - N/A   Clear
10:55 AM 48.4 °F - 39.0 °F 70% 30.53 in 10.0 mi NNE 6.9 mph - N/A   Clear
11:15 AM 50.5 °F - 39.2 °F 65% 30.54 in 10.0 mi North 5.8 mph - N/A   Clear
11:35 AM 52.0 °F - 38.7 °F 60% 30.52 in 10.0 mi North 9.2 mph - N/A   Clear
11:55 AM 53.1 °F - 38.7 °F 58% 30.52 in 10.0 mi North 9.2 mph - N/A   Clear
12:15 PM 54.1 °F - 38.1 °F 55% 30.50 in 10.0 mi NNE 5.8 mph - N/A   Clear
12:35 PM 55.4 °F - 37.4 °F 51% 30.48 in 10.0 mi NNE 5.8 mph - N/A   Clear
12:55 PM 55.6 °F - 37.2 °F 50% 30.46 in 10.0 mi NNE 4.6 mph - N/A   Clear
1:15 PM 55.8 °F - 36.5 °F 48% 30.46 in 10.0 mi North 8.1 mph - N/A   Clear
1:35 PM 55.2 °F - 36.5 °F 49% 30.46 in 10.0 mi NNE 4.6 mph - N/A   Clear
1:55 PM 55.4 °F - 36.9 °F 50% 30.45 in 10.0 mi Calm Calm - N/A   Clear
2:15 PM 55.4 °F - 36.7 °F 49% 30.44 in 10.0 mi North 8.1 mph - N/A   Clear
2:35 PM 55.4 °F - 36.9 °F 50% 30.43 in 10.0 mi NNE 3.5 mph - N/A   Clear
2:55 PM 55.6 °F - 36.7 °F 49% 30.42 in 10.0 mi NNE 5.8 mph - N/A   Clear
3:15 PM 55.6 °F - 36.9 °F 49% 30.41 in 10.0 mi NE 9.2 mph - N/A   Clear
3:35 PM 55.2 °F - 37.0 °F 50% 30.41 in 10.0 mi NNE 6.9 mph - N/A   Clear
3:55 PM 55.0 °F - 37.2 °F 51% 30.40 in 10.0 mi NNE 5.8 mph - N/A   Clear
4:15 PM 54.9 °F - 37.8 °F 53% 30.40 in 10.0 mi NNE 3.5 mph - N/A   Clear
4:35 PM 54.5 °F - 38.5 °F 55% 30.40 in 10.0 mi NNE 3.5 mph - N/A   Clear
4:55 PM 54.0 °F - 39.2 °F 57% 30.40 in 10.0 mi North 3.5 mph - N/A   Clear
5:15 PM 53.1 °F - 39.4 °F 60% 30.40 in 10.0 mi North 4.6 mph - N/A   Clear
5:35 PM 52.0 °F - 39.4 °F 62% 30.40 in 10.0 mi Calm Calm - N/A   Clear
5:55 PM 50.9 °F - 39.4 °F 65% 30.40 in 10.0 mi Calm Calm - N/A   Clear
6:15 PM 50.2 °F - 39.2 °F 66% 30.39 in 10.0 mi Calm Calm - N/A   Clear
6:35 PM 49.3 °F - 39.4 °F 69% 30.40 in 10.0 mi Calm Calm - N/A   Clear
6:55 PM 48.6 °F - 39.2 °F 70% 30.40 in 10.0 mi Calm Calm - N/A   Clear
7:15 PM 48.0 °F - 39.2 °F 72% 30.41 in 10.0 mi Calm Calm - N/A   Clear
7:35 PM 46.2 °F 45.0 °F 40.3 °F 80% 30.41 in 10.0 mi NNE 3.5 mph - N/A   Clear
7:55 PM 45.3 °F - 40.6 °F 84% 30.41 in 10.0 mi Calm Calm - N/A   Clear
8:15 PM 46.4 °F - 40.1 °F 79% 30.41 in 10.0 mi Calm Calm - N/A   Clear
8:35 PM 46.2 °F - 39.9 °F 79% 30.41 in 10.0 mi Calm Calm - N/A   Clear
8:55 PM 46.0 °F - 40.5 °F 81% 30.40 in 10.0 mi Calm Calm - N/A   Clear
9:15 PM 45.3 °F - 40.5 °F 83% 30.40 in 10.0 mi Calm Calm - N/A   Clear
9:35 PM 46.2 °F - 40.5 °F 80% 30.40 in 10.0 mi Calm Calm - N/A   Clear
9:55 PM 45.3 °F - 41.0 °F 85% 30.38 in 10.0 mi Calm Calm - N/A   Clear
10:15 PM 45.1 °F - 41.0 °F 85% 30.38 in 10.0 mi Calm Calm - N/A   Clear
10:35 PM 44.2 °F - 40.6 °F 87% 30.37 in 10.0 mi Calm Calm - N/A   Clear
10:55 PM 43.2 °F - 40.3 °F 90% 30.37 in 10.0 mi Calm Calm - N/A   Clear
11:15 PM 43.2 °F - 39.6 °F 87% 30.36 in 10.0 mi Calm Calm - N/A   Clear
11:35 PM 41.4 °F - 39.0 °F 91% 30.36 in 10.0 mi Calm Calm - N/A   Clear
11:55 PM 40.6 °F - 38.8 °F 93% 30.34 in 10.0 mi Calm Calm - N/A   Clear